Location: St Paul
(33.9360°N, 83.4200°W)
Time: 05:20:52
(UTC-04:00)

CZ-4 R/B - Pass Details

Date: 06 October 2017
Orbit: 530 x 602 km, 97.8° (Epoch: 17 October)

Event Time Altitude Azimuth Distance (km) Brightness Sun altitude
Rises 20:00:46 0° 196° (SSW) 2,822 5.1 -11.2°
Reaches altitude 10° 20:03:16 10° 210° (SSW) 1,931 4.5 -11.7°
Maximum altitude 20:06:39 23° 264° (W) 1,273 4.2 -12.4°
Drops below altitude 10° 20:10:04 10° 318° (NW) 1,948 4.8 -13.1°
Sets 20:12:36 0° 333° (NNW) 2,854 5.4 -13.6°
